{"data":{"norad_id":63976,"intl_designator":"2025-099AA","name":"STARLINK-34090","alt_names":[],"object_type":"PAYLOAD","status":"ACTIVE","operator":null,"country":"US","launch_date":"2025-05-13","launch_site_code":"AFETR","launch_vehicle":null,"mission":null,"orbit_class":"UNKNOWN","rcs_meters":null,"size_class":null,"mass_kg":null,"dimensions":null,"purposes":["comms"],"wikipedia_slug":null,"has_3d_model":false,"image_url":null,"decayed_at":null,"tle_current":{"epoch":"2026-05-25T04:19:13.321920Z","epoch_age_seconds":49722,"freshness":"FRESH","line1":"1 63976U 25099AA  26145.18001530  .00014066  00000+0  51946-3 0  9996","line2":"2 63976  43.0023 100.8447 0000525 261.2862  98.7930 15.27594067 58980","mean_motion":15.27594067,"eccentricity":5.25e-5,"inclination_deg":43.0023,"raan_deg":100.8447,"arg_perigee_deg":261.2862,"mean_anomaly_deg":98.793,"bstar":0.00051946,"rev_number":5898,"period_min":94.265880649038,"perigee_km":482.64676464564,"apogee_km":483.36718476298,"semimajor_km":6861.1439747043,"source":"CELESTRAK","updated_at":"2026-05-25T13:38:20.216201Z"}}}